Location: Unspecified
(50.7693°N, 0.0000°E)
Time: 06:08:15
(UTC+00:00)

Transit 2A - Pass Details

Date: 30 June 2019
Orbit: 594 x 965 km, 66.7° (Epoch: 17 July)

Event Time Altitude Azimuth Distance (km) Brightness Sun altitude
Rises 22:43:39 0° 216° (SW) 3,638 9.2 -14.0°
Reaches altitude 10° 22:46:13 10° 216° (SW) 2,697 8.5 -14.1°
Maximum altitude 22:52:37 88° 308° (NW) 956 6.5 -14.4°
Drops below altitude 10° 22:58:47 10° 38° (NE) 2,602 9.3 -14.7°
Sets 23:01:13 0° 38° (NE) 3,503 10.0 -14.8°
